Location: Goettingen
(51.5300°N, 9.9433°E)
Time: 06:02:46
(UTC+02:00)

ISS - Pass Details

Date: 10 May 2021
Orbit: 417 x 422 km, 51.6° (Epoch: 18 May)

Event Time Altitude Azimuth Distance (km) Brightness Sun altitude
Exits shadow 04:23:19 - 279° (W) 2,116 -0.5 -9.8°
Reaches altitude 10° 04:24:48 10° 278° (W) 1,506 -1.3 -9.6°
Maximum altitude 04:28:11 81° 192° (SSW) 431 -3.8 -9.2°
Drops below altitude 10° 04:31:34 10° 105° (ESE) 1,505 -0.5 -8.8°
Sets 04:33:40 0° 104° (ESE) 2,369 0.6 -8.6°
